QPF
0.00 0.00 0.00 0.00 0.00 0.01 0.01 0.01 0.01 0.01 0.00 0.00 0.00 0.00 0.00 0.00 0.00 0.00 0.00 0.01 0.01 0.01 0.01 0.00 0.00 0.00 0.01 0.01 0.02 0.02 0.03 0.03 0.04 0.04 0.03 0.03 0.05 0.04 0.04 0.04 0.04 0.04 0.05 0.05
0.00 0.00 0.00 0.00 0.00 0.00 0.00 0.00 0.00 0.00 0.00 0.00 0.01 0.01 0.00 0.00 0.00 0.00 0.00 0.00 0.01 0.01 0.01 0.01 0.01 0.01 0.01 0.01 0.01 0.01 0.02 0.03 0.03 0.02 0.02 0.03 0.06 0.07 0.06 0.06 0.06 0.04 0.04 0.05
0.01 0.00 0.00 0.00 0.00 0.00 0.00 0.00 0.00 0.00 0.00 0.00 0.01 0.02 0.01 0.00 0.00 0.00 0.00 0.00 0.01 0.01 0.01 0.01 0.01 0.01 0.00 0.01 0.01 0.01 0.02 0.02 0.02 0.03 0.02 0.03 0.04 0.04 0.06 0.07 0.06 0.05 0.04 0.04
0.01 0.00 0.00 0.00 0.00 0.00 0.00 0.00 0.00 0.00 0.00 0.00 0.01 0.03 0.02 0.00 0.00 0.00 0.00 0.00 0.00 0.00 0.00 0.00 0.00 0.01 0.00 0.01 0.01 0.01 0.01 0.01 0.01 0.02 0.02 0.02 0.02 0.04 0.07 0.09 0.07 0.06 0.04 0.03
0.01 0.00 0.00 0.00 0.00 0.00 0.00 0.00 0.00 0.00 0.00 0.00 0.01 0.02 0.01 0.01 0.00 0.00 0.00 0.00 0.00 0.00 0.00 0.00 0.00 0.00 0.00 0.00 0.00 0.00 0.00 0.01 0.01 0.01 0.01 0.02 0.03 0.04 0.06 0.08 0.06 0.03 0.03 0.03
0.00 0.00 0.00 0.00 0.00 0.00 0.00 0.00 0.00 0.00 0.00 0.00 0.00 0.00 0.01 0.02 0.01 0.00 0.00 0.00 0.00 0.00 0.00 0.00 0.00 0.00 0.00 0.00 0.00 0.00 0.01 0.01 0.02 0.02 0.02 0.02 0.03 0.05 0.06 0.07 0.05 0.03 0.03 0.04
0.00 0.00 0.00 0.00 0.00 0.00 0.00 0.00 0.00 0.01 0.01 0.00 0.00 0.00 0.00 0.00 0.00 0.00 0.00 0.00 0.00 0.01 0.00 0.00 0.00 0.00 0.00 0.00 0.00 0.00 0.01 0.01 0.02 0.02 0.02 0.02 0.03 0.04 0.04 0.03 0.04 0.03 0.03 0.04
0.00 0.00 0.00 0.00 0.00 0.00 0.00 0.00 0.00 0.01 0.01 0.01 0.02 0.01 0.00 0.00 0.00 0.00 0.00 0.01 0.02 0.01 0.00 0.01 0.00 0.00 0.00 0.00 0.00 0.01 0.01 0.02 0.02 0.02 0.02 0.03 0.03 0.04 0.03 0.03 0.02 0.02 0.03 0.03
0.00 0.00 0.00 0.00 0.00 0.00 0.00 0.00 0.00 0.00 0.01 0.01 0.01 0.00 0.00 0.00 0.00 0.00 0.00 0.01 0.01 0.00 0.00 0.00 0.00 0.00 0.00 0.00 0.00 0.01 0.01 0.02 0.02 0.01 0.01 0.01 0.02 0.03 0.03 0.02 0.02 0.02 0.03 0.03
0.00 0.00 0.00 0.00 0.00 0.00 0.00 0.00 0.00 0.00 0.02 0.02 0.02 0.01 0.01 0.01 0.00 0.00 0.00 0.00 0.00 0.00 0.00 0.00 0.00 0.00 0.00 0.00 0.00 0.00 0.00 0.01 0.01 0.01 0.01 0.01 0.02 0.02 0.02 0.02 0.02 0.03 0.04 0.05
0.01 0.00 0.00 0.00 0.00 0.00 0.00 0.00 0.00 0.00 0.01 0.02 0.02 0.02 0.02 0.01 0.00 0.00 0.00 0.00 0.00 0.00 0.00 0.00 0.00 0.00 0.00 0.00 0.00 0.00 0.00 0.01 0.01 0.02 0.02 0.03 0.04 0.04 0.05 0.04 0.04 0.04 0.05 0.05
0.00 0.00 0.00 0.00 0.00 0.01 0.00 0.00 0.00 0.02 0.02 0.02 0.03 0.01 0.01 0.01 0.00 0.00 0.00 0.00 0.00 0.01 0.01 0.00 0.00 0.00 0.00 0.00 0.01 0.01 0.01 0.01 0.01 0.01 0.02 0.03 0.04 0.07 0.10 0.09 0.06 0.06 0.05 0.04
0.00 0.00 0.01 0.02 0.01 0.00 0.00 0.01 0.01 0.01 0.03 0.03 0.04 0.02 0.00 0.01 0.01 0.00 0.00 0.00 0.00 0.00 0.00 0.00 0.00 0.00 0.00 0.00 0.01 0.01 0.01 0.01 0.01 0.01 0.02 0.03 0.04 0.05 0.07 0.08 0.06 0.07 0.06 0.05
0.00 0.00 0.01 0.02 0.03 0.02 0.01 0.01 0.01 0.01 0.01 0.02 0.03 0.04 0.02 0.01 0.01 0.02 0.01 0.00 0.00 0.00 0.00 0.00 0.00 0.00 0.00 0.00 0.01 0.01 0.01 0.01 0.01 0.02 0.02 0.02 0.04 0.05 0.04 0.06 0.06 0.07 0.07 0.08
0.00 0.00 0.00 0.02 0.04 0.03 0.03 0.02 0.01 0.01 0.02 0.03 0.04 0.02 0.02 0.01 0.02 0.03 0.01 0.01 0.01 0.01 0.01 0.00 0.00 0.01 0.00 0.00 0.00 0.01 0.02 0.01 0.01 0.01 0.02 0.03 0.03 0.04 0.06 0.07 0.07 0.08 0.07 0.06
0.00 0.00 0.00 0.02 0.06 0.03 0.01 0.01 0.01 0.01 0.01 0.03 0.05 0.02 0.01 0.01 0.02 0.02 0.02 0.02 0.03 0.04 0.02 0.01 0.01 0.01 0.01 0.01 0.01 0.02 0.02 0.02 0.03 0.03 0.03 0.04 0.04 0.05 0.07 0.09 0.08 0.07 0.06 0.06
0.00 0.01 0.01 0.01 0.03 0.02 0.01 0.00 0.00 0.01 0.01 0.03 0.04 0.02 0.02 0.01 0.01 0.04 0.04 0.02 0.02 0.02 0.01 0.01 0.01 0.02 0.02 0.03 0.02 0.02 0.03 0.04 0.05 0.05 0.04 0.04 0.04 0.04 0.05 0.06 0.08 0.08 0.06 0.05
0.00 0.00 0.01 0.01 0.01 0.01 0.00 0.00 0.00 0.01 0.02 0.02 0.01 0.01 0.01 0.01 0.01 0.03 0.04 0.02 0.02 0.02 0.02 0.01 0.01 0.01 0.01 0.03 0.03 0.03 0.04 0.05 0.04 0.04 0.04 0.04 0.04 0.04 0.05 0.06 0.07 0.08 0.07 0.06
0.00 0.00 0.00 0.01 0.01 0.00 0.00 0.00 0.00 0.01 0.02 0.02 0.01 0.01 0.01 0.01 0.02 0.04 0.03 0.03 0.03 0.01 0.01 0.01 0.01 0.01 0.02 0.02 0.03 0.04 0.04 0.04 0.04 0.05 0.05 0.05 0.04 0.04 0.05 0.07 0.08 0.07 0.06 0.05
0.00 0.00 0.00 0.02 0.01 0.01 0.01 0.00 0.00 0.01 0.03 0.02 0.01 0.01 0.01 0.02 0.03 0.06 0.05 0.04 0.03 0.01 0.01 0.01 0.01 0.01 0.02 0.02 0.02 0.03 0.03 0.03 0.03 0.04 0.04 0.04 0.04 0.04 0.03 0.04 0.06 0.06 0.06 0.06
0.00 0.00 0.00 0.01 0.02 0.01 0.01 0.00 0.00 0.02 0.03 0.01 0.00 0.01 0.02 0.03 0.02 0.03 0.03 0.02 0.01 0.01 0.01 0.01 0.01 0.01 0.01 0.01 0.02 0.03 0.03 0.03 0.04 0.04 0.03 0.03 0.03 0.03 0.03 0.03 0.05 0.06 0.06 0.06
0.01 0.01 0.00 0.00 0.02 0.03 0.01 0.01 0.01 0.03 0.02 0.01 0.01 0.01 0.01 0.02 0.01 0.01 0.01 0.00 0.00 0.01 0.01 0.01 0.01 0.01 0.01 0.01 0.02 0.03 0.04 0.04 0.04 0.04 0.04 0.04 0.03 0.02 0.03 0.03 0.04 0.04 0.04 0.04
0.00 0.01 0.03 0.02 0.02 0.02 0.01 0.01 0.02 0.04 0.02 0.01 0.02 0.02 0.02 0.02 0.01 0.01 0.01 0.01 0.01 0.01 0.01 0.01 0.02 0.03 0.03 0.02 0.02 0.02 0.03 0.04 0.05 0.05 0.04 0.04 0.03 0.03 0.03 0.03 0.04 0.04 0.03 0.03
0.00 0.00 0.01 0.03 0.03 0.01 0.01 0.02 0.03 0.04 0.02 0.01 0.02 0.03 0.04 0.04 0.03 0.03 0.02 0.02 0.02 0.02 0.02 0.02 0.03 0.04 0.05 0.04 0.03 0.02 0.02 0.03 0.04 0.05 0.05 0.04 0.03 0.02 0.02 0.02 0.02 0.01 0.01 0.01
0.00 0.00 0.01 0.03 0.03 0.03 0.04 0.04 0.04 0.02 0.01 0.01 0.01 0.02 0.03 0.03 0.03 0.03 0.02 0.02 0.03 0.03 0.02 0.03 0.05 0.06 0.06 0.05 0.05 0.04 0.03 0.03 0.03 0.04 0.05 0.04 0.04 0.04 0.04 0.03 0.02 0.02 0.02 0.02
0.00 0.01 0.03 0.05 0.03 0.04 0.03 0.02 0.02 0.01 0.01 0.01 0.01 0.03 0.03 0.03 0.03 0.03 0.02 0.02 0.03 0.03 0.03 0.03 0.04 0.05 0.05 0.05 0.05 0.05 0.05 0.04 0.04 0.03 0.04 0.04 0.04 0.04 0.04 0.03 0.02 0.02 0.03 0.03
MSLP
1006.55 1007.03 1007.30 1007.38 1007.33 1007.24 1007.14 1007.06 1007.00 1006.91 1006.74 1006.44 1006.01 1005.44 1004.79 1004.12 1003.54 1003.12 1002.91 1002.92 1003.14 1003.52 1004.00 1004.52 1005.04 1005.54 1006.03 1006.52 1007.05 1007.63 1008.25 1008.88 1009.48 1010.00 1010.39 1010.62 1010.70 1010.65 1010.54 1010.43 1010.39 1010.48 1010.72 1011.11
1006.79 1007.08 1007.17 1007.13 1007.04 1006.96 1006.96 1007.03 1007.14 1007.21 1007.17 1006.95 1006.52 1005.90 1005.14 1004.34 1003.61 1003.04 1002.71 1002.62 1002.76 1003.09 1003.51 1003.99 1004.45 1004.89 1005.32 1005.76 1006.26 1006.83 1007.48 1008.17 1008.86 1009.48 1009.97 1010.28 1010.40 1010.36 1010.22 1010.06 1009.96 1009.99 1010.18 1010.53
1006.78 1006.87 1006.79 1006.64 1006.52 1006.51 1006.64 1006.90 1007.21 1007.47 1007.58 1007.45 1007.05 1006.40 1005.56 1004.65 1003.80 1003.12 1002.69 1002.52 1002.61 1002.88 1003.26 1003.67 1004.05 1004.40 1004.72 1005.07 1005.48 1005.99 1006.62 1007.34 1008.09 1008.79 1009.37 1009.77 1009.96 1009.97 1009.83 1009.65 1009.50 1009.47 1009.60 1009.91
1006.49 1006.40 1006.19 1005.97 1005.87 1005.96 1006.26 1006.73 1007.26 1007.72 1007.99 1007.96 1007.60 1006.92 1006.02 1005.02 1004.07 1003.30 1002.80 1002.58 1002.63 1002.87 1003.20 1003.55 1003.85 1004.08 1004.28 1004.49 1004.77 1005.18 1005.75 1006.44 1007.20 1007.96 1008.62 1009.11 1009.38 1009.45 1009.35 1009.17 1009.00 1008.92 1009.00 1009.26
1005.97 1005.73 1005.43 1005.20 1005.17 1005.39 1005.88 1006.57 1007.32 1007.98 1008.39 1008.45 1008.11 1007.41 1006.45 1005.38 1004.35 1003.52 1002.97 1002.72 1002.75 1002.97 1003.27 1003.57 1003.79 1003.92 1003.99 1004.05 1004.18 1004.46 1004.91 1005.54 1006.28 1007.05 1007.76 1008.33 1008.69 1008.83 1008.79 1008.63 1008.46 1008.36 1008.39 1008.59
1005.27 1004.94 1004.61 1004.42 1004.50 1004.88 1005.57 1006.46 1007.41 1008.22 1008.74 1008.85 1008.53 1007.80 1006.78 1005.64 1004.55 1003.67 1003.09 1002.83 1002.86 1003.08 1003.38 1003.66 1003.82 1003.87 1003.82 1003.74 1003.73 1003.86 1004.19 1004.71 1005.39 1006.14 1006.87 1007.48 1007.91 1008.12 1008.14 1008.03 1007.87 1007.76 1007.76 1007.92
1004.47 1004.11 1003.81 1003.71 1003.92 1004.47 1005.33 1006.39 1007.47 1008.39 1008.96 1009.10 1008.75 1007.99 1006.92 1005.73 1004.60 1003.70 1003.11 1002.86 1002.90 1003.15 1003.47 1003.74 1003.89 1003.88 1003.76 1003.58 1003.44 1003.44 1003.63 1004.03 1004.61 1005.30 1006.01 1006.62 1007.09 1007.35 1007.43 1007.37 1007.24 1007.14 1007.12 1007.24
1003.63 1003.31 1003.08 1003.10 1003.45 1004.15 1005.14 1006.31 1007.46 1008.40 1008.99 1009.10 1008.72 1007.91 1006.81 1005.60 1004.46 1003.56 1002.99 1002.77 1002.85 1003.13 1003.49 1003.79 1003.95 1003.94 1003.78 1003.54 1003.32 1003.20 1003.26 1003.54 1004.00 1004.59 1005.22 1005.80 1006.26 1006.55 1006.67 1006.66 1006.57 1006.49 1006.47 1006.58
1002.81 1002.56 1002.46 1002.61 1003.08 1003.89 1004.95 1006.15 1007.29 1008.20 1008.74 1008.80 1008.38 1007.55 1006.45 1005.25 1004.15 1003.30 1002.77 1002.60 1002.74 1003.07 1003.47 1003.82 1004.02 1004.04 1003.89 1003.63 1003.35 1003.15 1003.10 1003.25 1003.57 1004.02 1004.54 1005.04 1005.45 1005.73 1005.87 1005.89 1005.85 1005.81 1005.82 1005.93
1002.04 1001.91 1001.94 1002.22 1002.79 1003.64 1004.71 1005.86 1006.92 1007.74 1008.19 1008.19 1007.74 1006.93 1005.88 1004.76 1003.75 1002.99 1002.55 1002.45 1002.65 1003.03 1003.48 1003.88 1004.13 1004.19 1004.08 1003.83 1003.53 1003.28 1003.13 1003.14 1003.31 1003.60 1003.96 1004.33 1004.65 1004.88 1005.02 1005.07 1005.08 1005.09 1005.15 1005.29
1001.34 1001.35 1001.52 1001.91 1002.54 1003.38 1004.38 1005.41 1006.33 1007.01 1007.35 1007.29 1006.86 1006.11 1005.18 1004.22 1003.37 1002.75 1002.44 1002.43 1002.68 1003.11 1003.59 1004.02 1004.31 1004.42 1004.34 1004.12 1003.83 1003.53 1003.30 1003.18 1003.18 1003.28 1003.46 1003.66 1003.86 1004.01 1004.11 1004.18 1004.25 1004.33 1004.46 1004.67
1000.73 1000.90 1001.20 1001.67 1002.30 1003.09 1003.95 1004.80 1005.54 1006.06 1006.29 1006.21 1005.82 1005.21 1004.47 1003.73 1003.10 1002.68 1002.52 1002.62 1002.93 1003.38 1003.86 1004.29 1004.59 1004.72 1004.67 1004.48 1004.19 1003.86 1003.55 1003.30 1003.12 1003.03 1002.99 1003.00 1003.04 1003.09 1003.15 1003.23 1003.35 1003.52 1003.76 1004.05
1000.23 1000.55 1000.96 1001.48 1002.09 1002.76 1003.45 1004.09 1004.61 1004.97 1005.11 1005.02 1004.74 1004.32 1003.83 1003.36 1003.01 1002.83 1002.84 1003.05 1003.41 1003.85 1004.31 1004.70 1004.97 1005.09 1005.04 1004.86 1004.56 1004.19 1003.80 1003.42 1003.07 1002.77 1002.52 1002.33 1002.20 1002.13 1002.13 1002.22 1002.40 1002.67 1003.02 1003.43
999.87 1000.32 1000.82 1001.35 1001.89 1002.42 1002.90 1003.32 1003.63 1003.83 1003.90 1003.85 1003.70 1003.51 1003.31 1003.16 1003.11 1003.18 1003.38 1003.69 1004.08 1004.50 1004.89 1005.21 1005.41 1005.48 1005.40 1005.20 1004.88 1004.47 1004.00 1003.50 1002.99 1002.49 1002.04 1001.65 1001.34 1001.15 1001.10 1001.19 1001.43 1001.79 1002.27 1002.81
999.67 1000.21 1000.76 1001.27 1001.72 1002.08 1002.36 1002.55 1002.67 1002.72 1002.74 1002.75 1002.77 1002.82 1002.93 1003.11 1003.36 1003.68 1004.06 1004.46 1004.86 1005.23 1005.53 1005.74 1005.84 1005.83 1005.71 1005.47 1005.11 1004.66 1004.13 1003.52 1002.87 1002.20 1001.56 1000.99 1000.53 1000.23 1000.12 1000.21 1000.50 1000.96 1001.55 1002.22
999.62 1000.22 1000.77 1001.23 1001.56 1001.75 1001.83 1001.82 1001.76 1001.71 1001.70 1001.78 1001.96 1002.26 1002.66 1003.14 1003.67 1004.22 1004.75 1005.22 1005.62 1005.92 1006.11 1006.21 1006.21 1006.11 1005.92 1005.64 1005.26 1004.77 1004.18 1003.50 1002.74 1001.95 1001.16 1000.45 999.86 999.46 999.30 999.39 999.72 1000.25 1000.95 1001.72
999.69 1000.28 1000.79 1001.17 1001.37 1001.41 1001.32 1001.14 1000.94 1000.81 1000.80 1000.95 1001.29 1001.80 1002.45 1003.19 1003.96 1004.69 1005.34 1005.86 1006.24 1006.48 1006.57 1006.56 1006.46 1006.28 1006.04 1005.72 1005.33 1004.83 1004.22 1003.50 1002.68 1001.80 1000.92 1000.11 999.44 998.98 998.77 998.85 999.21 999.79 1000.56 1001.41
999.82 1000.34 1000.77 1001.04 1001.12 1001.03 1000.80 1000.49 1000.22 1000.04 1000.05 1000.28 1000.75 1001.43 1002.27 1003.21 1004.15 1005.02 1005.75 1006.30 1006.66 1006.84 1006.86 1006.76 1006.58 1006.35 1006.07 1005.75 1005.37 1004.89 1004.30 1003.59 1002.77 1001.87 1000.96 1000.10 999.39 998.89 998.67 998.74 999.11 999.72 1000.51 1001.41
999.93 1000.32 1000.63 1000.78 1000.75 1000.56 1000.24 999.88 999.57 999.40 999.45 999.75 1000.32 1001.13 1002.11 1003.18 1004.23 1005.18 1005.96 1006.52 1006.86 1007.00 1006.97 1006.82 1006.61 1006.36 1006.09 1005.79 1005.45 1005.03 1004.49 1003.84 1003.06 1002.21 1001.33 1000.49 999.79 999.30 999.08 999.15 999.51 1000.12 1000.91 1001.80
999.94 1000.17 1000.32 1000.36 1000.24 999.99 999.65 999.29 999.01 998.88 998.99 999.37 1000.03 1000.92 1001.98 1003.12 1004.22 1005.20 1006.00 1006.56 1006.89 1007.01 1006.97 1006.81 1006.60 1006.37 1006.13 1005.89 1005.62 1005.28 1004.84 1004.28 1003.60 1002.84 1002.05 1001.29 1000.65 1000.20 1000.01 1000.09 1000.44 1001.03 1001.78 1002.63
999.82 999.85 999.86 999.78 999.61 999.35 999.04 998.74 998.54 998.51 998.71 999.17 999.89 1000.83 1001.92 1003.07 1004.18 1005.16 1005.95 1006.51 1006.84 1006.96 1006.93 1006.80 1006.62 1006.44 1006.26 1006.10 1005.91 1005.67 1005.34 1004.91 1004.36 1003.73 1003.07 1002.43 1001.90 1001.54 1001.40 1001.50 1001.85 1002.41 1003.10 1003.88
999.56 999.40 999.26 999.11 998.92 998.69 998.46 998.28 998.20 998.30 998.60 999.15 999.92 1000.89 1001.97 1003.10 1004.18 1005.13 1005.90 1006.45 1006.78 1006.93 1006.93 1006.85 1006.73 1006.61 1006.51 1006.42 1006.32 1006.18 1005.97 1005.66 1005.27 1004.79 1004.29 1003.80 1003.41 1003.16 1003.10 1003.25 1003.60 1004.12 1004.76 1005.44
999.22 998.89 998.63 998.42 998.25 998.09 997.99 997.95 998.04 998.28 998.70 999.33 1000.14 1001.11 1002.17 1003.25 1004.27 1005.17 1005.91 1006.44 1006.79 1006.97 1007.02 1007.00 1006.95 1006.89 1006.86 1006.83 1006.81 1006.76 1006.65 1006.47 1006.21 1005.90 1005.56 1005.24 1005.00 1004.88 1004.92 1005.13 1005.50 1005.99 1006.56 1007.16
998.87 998.41 998.07 997.84 997.70 997.65 997.68 997.82 998.07 998.46 999.00 999.70 1000.55 1001.50 1002.51 1003.52 1004.47 1005.32 1006.01 1006.54 1006.90 1007.11 1007.22 1007.26 1007.26 1007.27 1007.29 1007.31 1007.34 1007.35 1007.31 1007.23 1007.09 1006.92 1006.73 1006.58 1006.49 1006.50 1006.65 1006.92 1007.31 1007.79 1008.31 1008.83
998.60 998.04 997.65 997.43 997.36 997.42 997.60 997.90 998.31 998.84 999.48 1000.24 1001.09 1002.01 1002.96 1003.89 1004.77 1005.55 1006.20 1006.72 1007.10 1007.35 1007.51 1007.60 1007.66 1007.71 1007.76 1007.81 1007.86 1007.89 1007.90 1007.88 1007.82 1007.76 1007.71 1007.69 1007.73 1007.87 1008.11 1008.45 1008.87 1009.34 1009.82 1010.28
998.46 997.85 997.46 997.27 997.27 997.44 997.76 998.20 998.74 999.38 1000.10 1000.88 1001.72 1002.59 1003.47 1004.32 1005.12 1005.84 1006.45 1006.96 1007.35 1007.64 1007.85 1007.99 1008.10 1008.17 1008.23 1008.29 1008.33 1008.36 1008.38 1008.38 1008.38 1008.39 1008.42 1008.50 1008.65 1008.88 1009.20 1009.59 1010.04 1010.50 1010.96 1011.37
Thickness
5849 5836 5828 5839 5847 5844 5841 5837 5833 5841 5858 5849 5839 5834 5838 5844 5842 5837 5834 5832 5828 5827 5830 5829 5826 5825 5820 5815 5811 5808 5805 5803 5801 5797 5794 5791 5790 5791 5790 5790 5787 5786 5784 5782
5834 5830 5848 5859 5858 5853 5845 5834 5834 5844 5858 5848 5835 5832 5842 5846 5844 5843 5839 5835 5832 5829 5828 5827 5826 5823 5820 5815 5812 5809 5806 5804 5802 5799 5797 5795 5793 5792 5791 5790 5787 5786 5784 5782
5827 5844 5862 5855 5848 5844 5843 5838 5837 5838 5849 5850 5835 5822 5832 5844 5850 5848 5846 5842 5840 5833 5828 5826 5824 5822 5821 5816 5813 5812 5808 5806 5803 5801 5798 5796 5793 5791 5789 5787 5786 5786 5784 5782
5837 5855 5856 5848 5844 5844 5834 5852 5850 5845 5834 5824 5829 5801 5822 5835 5838 5841 5842 5842 5840 5838 5833 5829 5825 5823 5822 5820 5818 5814 5810 5807 5805 5802 5798 5794 5790 5786 5786 5786 5785 5785 5784 5782
5835 5850 5847 5840 5846 5850 5844 5858 5852 5846 5833 5822 5827 5811 5817 5835 5828 5835 5840 5842 5842 5841 5837 5832 5829 5826 5825 5824 5821 5816 5811 5808 5806 5803 5800 5796 5792 5790 5789 5787 5785 5784 5783 5781
5847 5862 5860 5854 5860 5859 5856 5850 5846 5843 5829 5804 5821 5814 5809 5828 5832 5836 5842 5843 5843 5842 5840 5836 5833 5829 5826 5825 5823 5818 5811 5807 5806 5803 5800 5796 5792 5790 5787 5785 5783 5783 5782 5780
5830 5847 5861 5864 5847 5851 5847 5826 5804 5797 5795 5800 5828 5819 5819 5838 5847 5845 5844 5844 5845 5843 5840 5836 5831 5827 5824 5823 5821 5817 5811 5806 5805 5802 5799 5796 5793 5791 5787 5785 5783 5782 5780 5779
5812 5819 5848 5857 5845 5836 5837 5828 5797 5780 5786 5801 5819 5810 5827 5851 5854 5853 5849 5848 5847 5843 5841 5837 5833 5828 5825 5822 5820 5816 5810 5806 5804 5801 5798 5796 5794 5791 5788 5786 5784 5782 5781 5780
5815 5819 5853 5859 5859 5849 5830 5827 5835 5814 5809 5800 5806 5816 5829 5846 5845 5845 5844 5844 5843 5843 5841 5838 5835 5830 5826 5822 5819 5816 5810 5806 5803 5801 5797 5794 5792 5789 5786 5784 5783 5782 5781 5780
5827 5813 5837 5853 5855 5851 5845 5838 5825 5807 5787 5779 5792 5800 5806 5819 5827 5835 5837 5837 5839 5841 5840 5838 5835 5831 5827 5823 5819 5816 5811 5806 5804 5800 5797 5793 5790 5788 5785 5782 5780 5779 5778 5777
5831 5812 5821 5834 5827 5825 5830 5827 5821 5814 5810 5785 5772 5788 5824 5823 5827 5833 5837 5838 5837 5839 5839 5837 5835 5832 5829 5825 5819 5814 5809 5804 5801 5799 5797 5793 5789 5787 5783 5779 5778 5776 5775 5773
5824 5813 5805 5820 5841 5847 5836 5825 5817 5795 5791 5796 5785 5792 5836 5834 5834 5835 5835 5837 5839 5839 5838 5836 5834 5830 5827 5822 5818 5812 5808 5803 5800 5798 5795 5792 5788 5784 5780 5777 5776 5774 5772 5770
5816 5802 5786 5793 5813 5827 5821 5824 5821 5815 5802 5791 5781 5790 5832 5831 5831 5833 5831 5832 5833 5833 5833 5831 5828 5824 5821 5818 5815 5811 5807 5803 5800 5797 5792 5788 5785 5781 5778 5775 5773 5771 5769 5767
5812 5797 5786 5777 5792 5806 5803 5809 5814 5808 5792 5788 5793 5800 5816 5819 5819 5822 5826 5826 5827 5826 5826 5823 5819 5817 5816 5813 5811 5808 5805 5802 5798 5794 5789 5784 5781 5778 5775 5773 5770 5768 5766 5763
5806 5789 5791 5796 5803 5806 5804 5803 5805 5802 5801 5792 5799 5802 5807 5815 5816 5818 5820 5819 5817 5815 5815 5814 5812 5811 5810 5808 5805 5804 5801 5798 5795 5789 5785 5781 5778 5775 5772 5769 5767 5765 5762 5761
5796 5781 5781 5781 5795 5799 5797 5803 5804 5804 5804 5799 5799 5797 5812 5815 5817 5814 5813 5811 5809 5807 5807 5807 5807 5805 5803 5801 5799 5798 5795 5793 5790 5784 5780 5777 5773 5770 5767 5765 5763 5760 5757 5756
5781 5771 5761 5761 5779 5781 5776 5795 5799 5799 5802 5797 5787 5793 5804 5802 5804 5804 5804 5805 5802 5801 5801 5801 5801 5800 5798 5797 5795 5792 5791 5789 5783 5779 5776 5772 5768 5765 5762 5761 5757 5754 5752 5750
5770 5763 5759 5755 5757 5740 5778 5813 5807 5800 5799 5800 5798 5798 5801 5801 5802 5802 5800 5797 5794 5797 5798 5797 5798 5796 5796 5794 5791 5788 5786 5782 5778 5774 5771 5768 5764 5760 5757 5754 5751 5749 5746 5744
5778 5761 5751 5747 5744 5753 5780 5795 5796 5787 5785 5797 5793 5795 5798 5800 5795 5789 5791 5793 5791 5791 5791 5793 5794 5792 5790 5787 5784 5781 5776 5773 5770 5767 5764 5762 5759 5755 5751 5747 5744 5743 5740 5738
5772 5763 5746 5741 5733 5734 5763 5789 5800 5788 5769 5788 5790 5787 5786 5784 5769 5769 5781 5784 5783 5784 5784 5785 5786 5785 5781 5779 5777 5772 5767 5764 5762 5760 5758 5757 5754 5750 5746 5743 5740 5738 5735 5733
5746 5744 5737 5733 5730 5744 5769 5784 5785 5753 5752 5778 5781 5778 5776 5770 5767 5771 5775 5775 5775 5775 5775 5776 5775 5773 5771 5770 5768 5763 5759 5756 5756 5755 5753 5750 5748 5745 5741 5738 5735 5732 5729 5727
5737 5733 5731 5731 5723 5730 5763 5767 5754 5751 5766 5769 5770 5770 5766 5764 5765 5765 5764 5762 5762 5762 5764 5764 5762 5761 5761 5761 5758 5753 5750 5751 5751 5748 5745 5743 5742 5740 5737 5732 5729 5726 5723 5720
5737 5734 5730 5726 5725 5741 5753 5751 5755 5758 5755 5757 5758 5759 5758 5755 5753 5753 5752 5751 5751 5752 5752 5753 5751 5749 5750 5750 5749 5744 5743 5744 5742 5739 5737 5736 5735 5732 5730 5726 5722 5719 5717 5715
5734 5739 5730 5722 5728 5737 5742 5745 5746 5748 5747 5751 5752 5751 5749 5744 5743 5742 5740 5739 5739 5739 5739 5740 5738 5737 5736 5738 5738 5737 5737 5737 5734 5731 5729 5729 5727 5725 5723 5720 5718 5715 5712 5709
5723 5724 5719 5714 5722 5728 5731 5734 5735 5737 5740 5742 5742 5743 5740 5736 5733 5731 5729 5728 5728 5728 5728 5728 5727 5725 5726 5727 5727 5728 5728 5727 5724 5723 5722 5721 5721 5718 5715 5713 5711 5709 5706 5704
5718 5713 5706 5705 5717 5716 5719 5727 5730 5729 5729 5731 5730 5729 5730 5728 5723 5722 5719 5719 5718 5717 5718 5717 5716 5716 5716 5717 5716 5717 5718 5717 5715 5713 5714 5714 5713 5712 5710 5707 5702 5699 5697 5694